Content
SEND FEEDBACK

Daily
Averages
Monthly
Summary
United States of America

LOWER ECHO LAKE, CALIFORNIA


Home > North America > United States > California
Elevation: 6350 feet     Latitude: 38 51N     Longitude: 120 01W

WEATHER
 
SELECT A DAY
Number of Records: 174,420;   Date Range: 1/1/95 - 7/29/14
 
SHARE

PRINT THIS DATA

[ ← Previous Day ]
WEATHER ALMANAC - FEBRUARY 14, 2013
[ Next Day → ]
[ °C ]   °F
Weather ElementAverageHighLow
Temperature35 °F51.1 °F (1:53 pm)21.9 °F (6:53 am)
Dewpoint20.6 °F24.1 °F (10:53 am)16 °F (6:53 am)
Humidity59.3 %78 % (3:53 am)27 % (1:53 pm)
Barometer30.35 in30.42 in (7:53 pm)30.28 in (1:53 pm)
Wind Speed2.5 mph5.8 mph (11:53 am)
Wind Gust17.3 mph (11:53 am)
Weather ElementAverage
Visibility10 mi
Wind DirectionENE (54.8 °)

Weather ElementTotal
Precipitation---
Heating Degree Days28.5 (Base 65)
Averaged from 23 records on February 14, 2013
WEATHER CONDITIONS BREAKOUT
WIND DIRECTION BREAKOUT
WEATHER BY HOUR - FEBRUARY 14, 2013
[ °C ]   °F
Local TimeTemperatureDewpointHumidityBarometerVisibilityWind DirectionWind SpeedGust SpeedPrecipitationEventsConditions
1:53 AM25.0 °F18.0 °F75 %30.30 in10.0 miCalmClear
2:53 AM25.0 °F18.0 °F75 %30.29 in10.0 miWest (260°)3.5 mphClear
3:53 AM23.0 °F17.1 °F78 %30.31 in10.0 miVariable3.5 mphClear
4:53 AM24.1 °F18.0 °F77 %30.30 in10.0 miCalmClear
5:53 AM24.1 °F17.1 °F75 %30.32 in10.0 miSSW (200°)3.5 mphClear
6:53 AM21.9 °F16.0 °F78 %30.37 in10.0 miSouth (180°)3.5 mphClear
7:53 AM24.1 °F18.0 °F77 %30.38 in10.0 miCalmClear
8:53 AM30.0 °F21.0 °F69 %30.37 in10.0 miSSW (210°)3.5 mphClear
9:53 AM43.0 °F23.0 °F45 %30.35 in10.0 miCalmClear
10:53 AM46.0 °F24.1 °F42 %30.35 in10.0 miVariable3.5 mphClear
11:53 AM46.9 °F23.0 °F39 %30.32 in10.0 miVariable5.8 mph17.3 mphClear
12:53 PM50.0 °F19.9 °F31 %30.30 in10.0 miVariable3.5 mphClear
1:53 PM51.1 °F18.0 °F27 %30.28 in10.0 miVariable4.6 mphClear
2:53 PM48.9 °F21.9 °F35 %30.30 in10.0 miCalmClear
3:53 PM50.0 °F19.9 °F31 %30.31 in10.0 miNNE (20°)5.8 mphClear
4:53 PM44.1 °F24.1 °F45 %30.33 in10.0 miVariable5.8 mphClear
5:53 PM43.0 °F23.0 °F45 %30.35 in10.0 miCalmClear
6:53 PM37.0 °F24.1 °F59 %30.40 in10.0 miCalmClear
7:53 PM34.0 °F23.0 °F64 %30.42 in10.0 miCalmClear
8:53 PM30.9 °F21.9 °F69 %30.42 in10.0 miVariable3.5 mphClear
9:53 PM28.9 °F21.9 °F75 %30.39 in10.0 miCalmClear
10:53 PM28.0 °F21.0 °F75 %30.40 in10.0 miSouth (190°)3.5 mphClear
11:53 PM27.0 °F21.0 °F78 %30.39 in10.0 miSSW (200°)3.5 mphClear
Hourly data recorded from KTVL, located miles away from Lower Echo Lake, California







STORIES FROM OUR PARTNERS